Location: Albany
(35.0000°S, 118.0000°E)
Time: 03:48:26
(UTC-04:00)

SJ-6B - Visible Passes

Search period start: 28 May 2018 00:00
Search period end: 07 June 2018 00:00
Orbit: 510 x 583 km, 97.7° (Epoch: 27 May)

Date Brightness Start Highest point End Pass type
(mag) Time Alt. Az. Time Alt. Az. Time Alt. Az.
29 May 5.7 18:34:36 10° ENE 18:37:19 17° ESE 18:40:03 10° SSE visible
30 May 5.7 18:29:46 10° ENE 18:32:08 15° ESE 18:34:30 10° SSE visible
31 May 5.8 18:25:02 10° E 18:26:57 13° ESE 18:28:52 10° SE visible
01 Jun 6.0 18:20:30 10° E 18:21:46 11° ESE 18:23:02 10° SE visible
